Location: Unspecified
(0.0000°N, 0.0000°E)
Time: 01:36:56
(UTC+00:00)

S-56A Canister/Altair - Pass Details

Date: 13 December 2018
Orbit: 633 x 2500 km, 38.9° (Epoch: 16 January)

Event Time Altitude Azimuth Distance (km) Brightness Sun altitude
Rises 08:34:02 0° 333° (NNW) 6,087 11.7 36.2°
Reaches altitude 10° 08:40:06 10° 350° (N) 5,153 11.5 37.5°
Maximum altitude 08:49:25 19° 29° (NNE) 4,353 11.5 39.5°
Drops below altitude 10° 08:58:00 10° 68° (ENE) 4,742 12.1 41.4°
Sets 09:03:05 0° 85° (E) 5,460 12.4 42.5°
